Previsão horária em Plodopitomnik

Hoje, 25 Fevereiro, Quinta-feira

Tempo Temperatura Precipitação Vento Pressão Humidade
00:00 -23°C° 0 mm 4 m/s 765 mmHg 91%
01:00 -23°C° 0 mm 4 m/s 764 mmHg 92%
02:00 -23°C° 0 mm 4 m/s 763 mmHg 94%
03:00 -22°C° 0 mm 4 m/s 762 mmHg 95%
04:00 -22°C° 0.2 mm 4 m/s 762 mmHg 95%
05:00 -21°C° 0.2 mm 5 m/s 761 mmHg 95%
06:00 -20°C° 0.2 mm 5 m/s 760 mmHg 95%
07:00 -19°C° 0.4 mm 5 m/s 759 mmHg 95%
08:00 -18°C° 0.4 mm 6 m/s 759 mmHg 94%
09:00 -18°C° 0 mm 7 m/s 758 mmHg 94%
10:00 -17°C° 0.6 mm 7 m/s 757 mmHg 94%
11:00 -15°C° 0.6 mm 7 m/s 756 mmHg 94%
12:00 -15°C° 0.6 mm 8 m/s 755 mmHg 94%
13:00 -13°C° 0.7 mm 8 m/s 754 mmHg 94%
14:00 -12°C° 0.7 mm 8 m/s 753 mmHg 94%
15:00 -10°C° 0.7 mm 8 m/s 752 mmHg 94%
16:00 -8°C° 0.5 mm 7 m/s 751 mmHg 94%
17:00 -7°C° 0.5 mm 7 m/s 750 mmHg 95%
18:00 -4°C° 0.5 mm 7 m/s 750 mmHg 95%
19:00 -3°C° 0 mm 6 m/s 749 mmHg 96%
20:00 -1°C° 0 mm 5 m/s 749 mmHg 97%
21:00 0°C° 0 mm 5 m/s 749 mmHg 99%
22:00 0°C° 0 mm 4 m/s 749 mmHg 99%
23:00 0°C° 0 mm 4 m/s 749 mmHg 99%

Amanhã, 26 Fevereiro, Sexta-feira

Tempo Temperatura Precipitação Vento Pressão Humidade
00:00 0°C° 0 mm 4 m/s 748 mmHg 99%
01:00 -1°C° 0 mm 4 m/s 749 mmHg 99%
02:00 0°C° 0 mm 3 m/s 749 mmHg 98%
03:00 0°C° 0 mm 3 m/s 749 mmHg 98%
04:00 0°C° 0 mm 3 m/s 749 mmHg 98%
05:00 0°C° 0 mm 3 m/s 748 mmHg 98%
06:00 0°C° 0 mm 3 m/s 748 mmHg 98%
07:00 0°C° 0.1 mm 3 m/s 748 mmHg 99%
08:00 0°C° 0.1 mm 3 m/s 748 mmHg 99%
09:00 0°C° 0.1 mm 3 m/s 748 mmHg 99%
10:00 -1°C° 0.1 mm 4 m/s 747 mmHg 99%
11:00 0°C° 0.1 mm 4 m/s 747 mmHg 99%
12:00 0°C° 0.1 mm 4 m/s 747 mmHg 99%
13:00 0°C° 0 mm 4 m/s 747 mmHg 99%
14:00 0°C° 0 mm 5 m/s 746 mmHg 99%
15:00 0°C° 0 mm 5 m/s 746 mmHg 99%
16:00 0°C° 0 mm 5 m/s 745 mmHg 98%
17:00 -1°C° 0 mm 6 m/s 745 mmHg 98%
18:00 -1°C° 0 mm 6 m/s 744 mmHg 97%
19:00 -1°C° 0.1 mm 6 m/s 744 mmHg 98%
20:00 -1°C° 0.1 mm 6 m/s 744 mmHg 98%
21:00 -1°C° 0.1 mm 6 m/s 744 mmHg 99%
22:00 -1°C° 0 mm 6 m/s 743 mmHg 97%
23:00 -1°C° 0 mm 6 m/s 743 mmHg 96%

Depois de amanhã, 27 Fevereiro, Sábado

Tempo Temperatura Precipitação Vento Pressão Humidade
00:00 -1°C° 0 mm 6 m/s 742 mmHg 94%
01:00 -1°C° 0 mm 6 m/s 742 mmHg 94%
02:00 -2°C° 0 mm 6 m/s 742 mmHg 93%
03:00 -1°C° 0 mm 5 m/s 743 mmHg 93%
04:00 -1°C° 0 mm 5 m/s 742 mmHg 93%
05:00 -1°C° 0 mm 5 m/s 742 mmHg 93%
06:00 -2°C° 0 mm 5 m/s 741 mmHg 93%
07:00 -1°C° 0 mm 5 m/s 741 mmHg 94%
08:00 -1°C° 0 mm 5 m/s 741 mmHg 96%
09:00 -1°C° 0 mm 5 m/s 741 mmHg 97%
10:00 -1°C° 0 mm 5 m/s 741 mmHg 97%
11:00 -1°C° 0 mm 5 m/s 741 mmHg 98%
12:00 -1°C° 0 mm 5 m/s 740 mmHg 98%
13:00 -1°C° 0.1 mm 5 m/s 740 mmHg 98%
14:00 -2°C° 0.1 mm 6 m/s 740 mmHg 98%
15:00 -2°C° 0.1 mm 6 m/s 740 mmHg 98%
16:00 -2°C° 0 mm 6 m/s 740 mmHg 97%
17:00 -2°C° 0 mm 6 m/s 740 mmHg 97%
18:00 -2°C° 0 mm 7 m/s 740 mmHg 96%
19:00 -4°C° 0.2 mm 6 m/s 740 mmHg 94%
20:00 -6°C° 0.2 mm 6 m/s 741 mmHg 92%
21:00 -9°C° 0.2 mm 6 m/s 741 mmHg 90%
22:00 -10°C° 0 mm 5 m/s 742 mmHg 90%
23:00 -11°C° 0 mm 5 m/s 742 mmHg 90%

28 Fevereiro, Domingo

Tempo Temperatura Precipitação Vento Pressão Humidade
00:00 -13°C° 0 mm 5 m/s 743 mmHg 90%
01:00 -13°C° 0 mm 5 m/s 743 mmHg 90%
02:00 -14°C° 0 mm 5 m/s 744 mmHg 89%
03:00 -15°C° 0 mm 5 m/s 745 mmHg 89%
04:00 -15°C° 0 mm 5 m/s 745 mmHg 90%
05:00 -17°C° 0 mm 5 m/s 746 mmHg 90%
06:00 -17°C° 0 mm 5 m/s 746 mmHg 91%
07:00 -17°C° 0 mm 5 m/s 747 mmHg 90%
08:00 -17°C° 0 mm 5 m/s 747 mmHg 90%
09:00 -17°C° 0 mm 5 m/s 748 mmHg 90%
10:00 -17°C° 0 mm 5 m/s 748 mmHg 89%
11:00 -15°C° 0 mm 5 m/s 748 mmHg 89%
12:00 -15°C° 0 mm 5 m/s 749 mmHg 88%
13:00 -14°C° 0 mm 4 m/s 749 mmHg 88%
14:00 -14°C° 0 mm 4 m/s 749 mmHg 87%
15:00 -14°C° 0 mm 4 m/s 750 mmHg 87%
16:00 -14°C° 0 mm 4 m/s 750 mmHg 89%
17:00 -14°C° 0 mm 3 m/s 751 mmHg 90%
18:00 -14°C° 0 mm 3 m/s 751 mmHg 92%
19:00 -14°C° 0 mm 3 m/s 752 mmHg 93%
20:00 -15°C° 0 mm 3 m/s 752 mmHg 93%
21:00 -15°C° 0 mm 3 m/s 753 mmHg 94%
22:00 -16°C° 0 mm 3 m/s 753 mmHg 94%
23:00 -16°C° 0 mm 3 m/s 754 mmHg 94%

1 Março, Segunda-feira

Tempo Temperatura Precipitação Vento Pressão Humidade
00:00 -16°C° 0 mm 3 m/s 754 mmHg 95%
01:00 -16°C° 0 mm 2 m/s 754 mmHg 94%
02:00 -16°C° 0 mm 2 m/s 755 mmHg 94%
03:00 -16°C° 0 mm 2 m/s 755 mmHg 94%
04:00 -16°C° 0 mm 2 m/s 755 mmHg 94%
05:00 -17°C° 0 mm 2 m/s 756 mmHg 94%
06:00 -17°C° 0 mm 2 m/s 756 mmHg 94%
07:00 -16°C° 0 mm 2 m/s 756 mmHg 94%
08:00 -16°C° 0 mm 2 m/s 756 mmHg 93%
09:00 -16°C° 0 mm 3 m/s 757 mmHg 93%
10:00 -14°C° 0 mm 2 m/s 757 mmHg 91%
11:00 -13°C° 0 mm 2 m/s 757 mmHg 90%
12:00 -12°C° 0 mm 2 m/s 757 mmHg 89%
13:00 -12°C° 0 mm 2 m/s 757 mmHg 89%
14:00 -10°C° 0 mm 2 m/s 757 mmHg 90%
15:00 -10°C° 0 mm 3 m/s 757 mmHg 90%
16:00 -12°C° 0 mm 3 m/s 757 mmHg 92%
17:00 -12°C° 0 mm 3 m/s 756 mmHg 93%
18:00 -12°C° 0 mm 3 m/s 756 mmHg 95%
19:00 -12°C° 0 mm 3 m/s 756 mmHg 95%
20:00 -11°C° 0 mm 4 m/s 755 mmHg 95%
21:00 -11°C° 0 mm 4 m/s 755 mmHg 95%
22:00 -10°C° 0 mm 4 m/s 754 mmHg 94%
23:00 -10°C° 0 mm 5 m/s 753 mmHg 94%

2 Março, Terça-feira

Tempo Temperatura Precipitação Vento Pressão Humidade
00:00 -10°C° 0 mm 6 m/s 753 mmHg 94%
01:00 -9°C° 0.1 mm 6 m/s 752 mmHg 93%
02:00 -8°C° 0.1 mm 7 m/s 751 mmHg 93%
03:00 -7°C° 0.1 mm 7 m/s 750 mmHg 93%
04:00 -7°C° 0 mm 7 m/s 749 mmHg 93%
05:00 -6°C° 0 mm 7 m/s 749 mmHg 93%
06:00 -4°C° 0 mm 7 m/s 748 mmHg 93%
07:00 -4°C° 0.1 mm 7 m/s 747 mmHg 94%
08:00 -3°C° 0.1 mm 7 m/s 747 mmHg 94%
09:00 -3°C° 0.1 mm 7 m/s 746 mmHg 95%
10:00 -3°C° 0.1 mm 7 m/s 746 mmHg 95%
11:00 -3°C° 0.1 mm 7 m/s 746 mmHg 96%
12:00 -2°C° 0.1 mm 6 m/s 746 mmHg 97%
13:00 -2°C° 0 mm 6 m/s 746 mmHg 95%
14:00 -2°C° 0 mm 6 m/s 746 mmHg 93%
15:00 -2°C° 0 mm 6 m/s 746 mmHg 91%
16:00 -2°C° 0 mm 5 m/s 746 mmHg 90%
17:00 -2°C° 0 mm 5 m/s 746 mmHg 89%
18:00 -4°C° 0 mm 5 m/s 746 mmHg 88%
19:00 -4°C° 0 mm 5 m/s 746 mmHg 90%
20:00 -4°C° 0 mm 5 m/s 746 mmHg 92%
21:00 -5°C° 0 mm 5 m/s 746 mmHg 93%
22:00 -5°C° 0 mm 5 m/s 746 mmHg 93%
23:00 -5°C° 0 mm 5 m/s 746 mmHg 93%
Mostrar mais

Necessitamos do seu Consentimento

A Meteoprog e os seus Fornecedores de Serviços podem armazenar e aceder a dados pessoais como cookies, identificadores do dispositivo ou outras tecnologias semelhantes existentes no seu dispositivo e processar estes dados para personalizar conteúdos e anúncios, assim como funcionalidades nas redes sociais e análise de tráfego.

  • Armazenar e/ou aceder a informações no seu dispositivo

    Os cookies, identificadores do dispositivo ou outras informações podem ser armazenados ou acedidos no seu dispositivo, para os fins acima indicados.

  • Anúncios e conteúdos personalizados, medição de anúncios e conteúdos, dados sobre o público-alvo e desenvolvimento de produtos

    Os anúncios e os conteúdos podem ser personalizados com base num perfil. Podem ser adicionados dados adicionais para uma maior personalização dos anúncios e dos conteúdos. A eficácia dos anúncios e dos conteúdos pode ser medida. Podem ser obtidas informações sobre o público que visualizou os anúncios e os conteúdos. Estes dados podem ser usados para desenvolver ou melhorar sistemas, softwares ou a experiência do utilizador.

Ao clicar em "Eu concordo”, permitirá o uso de cookies, identificadores do dispositivo e web beacons mencionados ou outras tecnologias semelhantes. As configurações do navegador do seu dispositivo podem ser alteradas.

Para certos fins, podem ser invocados interesses legítimos ao invés de consentimento. Pode ler mais informação sobre este assunto na nossa Política de Privacidade e Cookies.